Miscellaneous Local Product
Issued by NWS North Platte, NE

Home | Current Version | Previous Version | Graphics & Text | Print | Product List | Glossary On
Versions: 1 2 3 4 5 6 7 8 9 10 11 12 13 14 15 16 17 18 19 20 21 22 23 24 25 26 27 28 29 30 31 32 33 34 35 36 37 38 39 40 41 42 43 44 45 46 47 48 49 50
000
AXUS43 KLBF 061510
MISLBF


WESTERN AND NORTH CENTRAL NEBRASKA HOURLY WEATHER ROUNDUP
NATIONAL WEATHER SERVICE NORTH PLATTE NE
1000 AM CDT MON JUL 06 2015

***STATIONS NOT REPORTING VARIABLES SUCH AS SKY/WEATHER OR
PRESSURE ARE PROVIDED BY THE NEBRASKA DEPARTMENT OF
ROADS...RAWS...AND APRS NETWORKS...AND ARE NOT UNDER
NATIONAL WEATHER SERVICE QUALITY CONTROL***

...OBSERVATIONS IN AND NEAR THE EASTERN PANHANDLE OF NEBRASKA...

CITY           SKY/WX    TMP DP  RH WIND       PRES   REMARKS
PINE RIDGE     CLOUDY    61  56  83 N12       30.21R HAZE
CHADRON        CLOUDY    61  57  87 N7        30.22R FOG
ALLIANCE       PTSUNNY   63  57  81 N14       30.19R HAZE
SIDNEY         CLOUDY    59  57  93 NE18G25   30.21R FOG
WHITECLAY        N/A     60  56  85 S9          N/A
CRESCENT LAKE    N/A     61  56  84 N14         N/A
BIG SPRINGS      N/A     65  59  81 N9          N/A
$$

...OBSERVATIONS IN NORTH CENTRAL NEBRASKA...

CITY           SKY/WX    TMP DP  RH WIND       PRES   REMARKS
VALENTINE      CLOUDY    66  60  81 N14       30.11R HAZE
THEDFORD       CLOUDY    66  60  82 N18G25    30.10S HAZE
AINSWORTH      CLOUDY    64  64 100 N18G24    30.09R FOG
O`NEILL        CLOUDY    64  63  97 N18G28    30.03R FOG
ORD            CLOUDY    68  64  87 N18G25    29.99R
BROKEN BOW     CLOUDY    66  62  87 N22G30    30.02R FOG
VALENTINE NWR    N/A     62  60  92 N13G20      N/A
SPRINGVIEW       N/A     65  60  85 NW8G20      N/A
HALSEY           N/A     62  61  97 N9G20       N/A
BREWSTER         N/A     67  65  91 N16         N/A
ROSE             N/A     76  76  99 NE18        N/A
NEWPORT          N/A     66  64  93 SW9         N/A
CHAMBERS         N/A     66  64  95 W6          N/A
EWING            N/A     67  64  91 N10G18      N/A
$$

...OBSERVATIONS IN SOUTHWEST NEBRASKA AND FAR NORTHEAST COLORADO...

CITY           SKY/WX    TMP DP  RH WIND       PRES   REMARKS
WRAY           CLOUDY    65  60  86 N14G21    30.14R
HOLYOKE        CLOUDY    66  59  77 N18       30.14S
IMPERIAL       CLOUDY    65  58  78 N18G26    30.10R
OGALLALA       CLOUDY    64  58  83 N18       30.14R
NORTH PLATTE   CLOUDY    65  59  81 N17G28    30.06R
MCCOOK         CLOUDY    71  63  75 N26G35    30.02R
LEXINGTON      CLOUDY    69  64  84 N16G28    30.01R
PAXTON           N/A     64  60  88 N12         N/A
GOTHENBURG       N/A     68  59  73 N10         N/A
CALLAWAY         N/A     64  63  96 N14         N/A
$$

...NORTH PLATTE AREA...

CITY           SKY/WX    TMP DP  RH WIND       PRES   REMARKS
AIRPORT        CLOUDY    65  59  81 N17G28    30.06R
DOWNTOWN         N/A     65  60  85 N13G23      N/A
HILLCREST        N/A     65  60  85 NE20G29     N/A
$$

...SOME WEATHER OBSERVATIONS FROM AROUND THE REGION...

CITY           SKY/WX    TMP DP  RH WIND       PRES   REMARKS
DENVER         CLOUDY    60  59  96 NE10      30.25R FOG
LARAMIE        CLOUDY    54  51  90 NW3       30.33R
CHEYENNE       CLOUDY    56  54  93 NE10      30.29R FOG
SCOTTSBLUFF    CLOUDY    61  55  81 NE8       30.22R HAZE
RAPID CITY     CLOUDY    60  53  77 NW14      30.23R
PIERRE         PTSUNNY   66  61  84 N12       30.09R HAZE
WINNER         CLOUDY    68  61  78 NE15      30.08R HAZE
SIOUX FALLS    CLOUDY    69  67  93 N16G23    29.94R
OMAHA          LGT RAIN  74  71  91 SE6       29.88R
GRAND ISLAND   CLOUDY    73  69  87 N14       29.95R
KANSAS CITY    CLOUDY    81  73  76 S13       29.92S
WICHITA        PTSUNNY   86  70  58 S17       29.89S HX  90
HAYS           PTSUNNY   81  64  57 NW6       29.88R
LIBERAL        MOSUNNY   81  64  57 NW18      29.97R
GOODLAND       CLOUDY    64  60  87 N28G37    30.09R
$$



USA.gov is the U.S. government's official web portal to all federal, state and local government web resources and services.